Data for 08/25/2017

Time Sea-Level Adjusted Pressure Absolute Pressure Temperature Relative Humidity Dew Point   
(mb) (inHg) (mb) (inHg) (C) (F) (%) (C) (F)
00:05 1020 30.12 850 25.1 15.2 59.4 66 9 48.2
00:10 1021 30.15 850 25.1 14.9 58.8 69 9.4 48.9
00:15 1021 30.15 850 25.1 14.2 57.5 77 10.1 50.3
00:20 1020 30.12 849 25.07 13.4 56.1 78 9.6 49.3
00:25 1020 30.12 849 25.07 13.4 56.1 77 9.4 49
00:30 1020 30.12 850 25.1 13.4 56 72 8.5 47.3
00:35 1020 30.12 849 25.07 13.9 57 71 8.7 47.7
00:40 1020 30.12 849 25.07 14.5 58.1 70 9.2 48.5
00:45 1020 30.12 849 25.07 14 57.2 77 10.1 50.1
00:50 1020 30.12 849 25.07 13.4 56.2 75 9.2 48.6
00:55 1020 30.12 849 25.07 13.5 56.4 76 9.3 48.8
01:00 1020 30.12 849 25.07 13.5 56.3 75 9.2 48.6
01:05 1019 30.09 849 25.07 13.5 56.3 75 9.1 48.4
01:10 1019 30.09 849 25.07 13.4 56 75 9.1 48.3
01:15 1019 30.09 848 25.04 13.3 56 75 9.1 48.3
01:20 1019 30.09 848 25.04 13.3 55.9 75 8.9 48
01:25 1019 30.09 848 25.04 13.3 56 75 9 48.2
01:30 1019 30.09 848 25.04 13 55.4 77 9.2 48.5
01:35 1019 30.09 848 25.04 12.8 55.1 78 9.2 48.5
01:40 1019 30.09 849 25.07 12.7 54.9 80 9.3 48.8
01:45 1019 30.09 848 25.04 12.6 54.7 80 9.3 48.8
01:50 1019 30.09 848 25.04 12.7 54.9 79 9.2 48.6
01:55 1019 30.09 848 25.04 12.9 55.2 78 9.3 48.7
02:00 1019 30.09 848 25.04 12.8 55 78 9.1 48.3
02:05 1019 30.09 848 25.04 12.9 55.2 77 9.1 48.3
02:10 1019 30.09 848 25.04 13 55.4 76 9 48.1
02:15 1019 30.09 848 25.04 13.2 55.8 75 9 48.2
02:20 1019 30.09 848 25.04 13.4 56.2 73 8.8 47.8
02:25 1019 30.09 848 25.04 13.7 56.6 71 8.5 47.3
02:30 1019 30.09 848 25.04 14 57.1 68 8.2 46.8
02:35 1019 30.09 848 25.04 14.1 57.4 69 8.7 47.6
02:40 1019 30.09 848 25.04 13.9 57 71 8.8 47.8
02:45 1019 30.09 848 25.04 13.7 56.7 72 8.7 47.7
02:50 1019 30.09 848 25.04 13.6 56.4 72 8.7 47.7
02:55 1019 30.09 848 25.04 13.6 56.4 72 8.6 47.4
03:00 1019 30.09 848 25.04 13.6 56.4 71 8.5 47.4
03:05 1019 30.09 848 25.04 13.6 56.4 71 8.4 47.1
03:10 1019 30.09 848 25.04 13.7 56.6 70 8.4 47.2
03:15 1019 30.09 848 25.04 13.7 56.6 69 8.2 46.8
03:20 1019 30.09 848 25.04 13.7 56.7 70 8.4 47.2
03:25 1019 30.09 848 25.04 13.7 56.6 70 8.3 47
03:30 1019 30.09 848 25.04 13.5 56.4 71 8.3 47
03:35 1019 30.09 848 25.04 13.5 56.2 71 8.3 46.9
03:40 1019 30.09 848 25.04 13.4 56.1 72 8.4 47.1
03:45 1019 30.09 848 25.04 13.2 55.7 72 8.3 46.9
03:50 1019 30.09 848 25.04 13.1 55.5 72 8.2 46.7
03:55 1019 30.09 848 25.04 13.1 55.5 72 8.3 46.9
04:00 1019 30.09 848 25.04 12.9 55.2 73 8.3 46.9
04:05 1019 30.09 848 25.04 12.7 54.8 74 8.2 46.8
04:10 1019 30.09 848 25.04 12.7 54.9 71 7.6 45.7
04:15 1019 30.09 849 25.07 13 55.4 71 7.9 46.2
04:20 1019 30.09 849 25.07 13 55.4 71 7.9 46.2
04:25 1019 30.09 849 25.07 12.9 55.2 72 7.9 46.2
04:30 1019 30.09 849 25.07 12.7 54.9 72 7.8 46.1
04:35 1019 30.09 849 25.07 12.7 54.8 72 7.8 46
04:40 1019 30.09 849 25.07 12.7 54.9 71 7.6 45.6
04:45 1019 30.09 849 25.07 12.8 55 70 7.5 45.5
04:50 1019 30.09 849 25.07 12.8 55 72 7.8 46
04:55 1019 30.09 849 25.07 12.6 54.7 71 7.6 45.7
05:00 1019 30.09 849 25.07 12.5 54.5 73 7.8 46
05:05 1019 30.09 849 25.07 12.4 54.2 73 7.7 45.9
05:10 1019 30.09 849 25.07 12.3 54.1 74 7.7 45.9
05:15 1019 30.09 849 25.07 12.3 54.1 73 7.6 45.7
05:20 1019 30.09 849 25.07 12.3 54.2 73 7.8 46
05:25 1019 30.09 849 25.07 12.3 54.1 73 7.7 45.8
05:30 1019 30.09 849 25.07 12.3 54.1 73 7.6 45.7
05:35 1019 30.09 849 25.07 12.2 54 73 7.5 45.4
05:40 1019 30.09 849 25.07 12.3 54.1 72 7.4 45.2
05:45 1019 30.09 849 25.07 12.4 54.3 71 7.3 45.2
05:50 1019 30.09 849 25.07 12.5 54.4 71 7.3 45.2
05:55 1019 30.09 849 25.07 12.3 54.1 71 7.1 44.8
06:00 1019 30.09 849 25.07 12.3 54.1 72 7.3 45.2
06:05 1019 30.09 849 25.07 12.2 53.9 71 7.2 45
06:10 1019 30.09 849 25.07 12.2 54 72 7.3 45.2
06:15 1019 30.09 849 25.07 12.1 53.8 72 7.2 44.9
06:20 1020 30.12 849 25.07 12.2 53.9 72 7.3 45.1
06:25 1020 30.12 849 25.07 12.2 54 71 7.2 44.9
06:30 1020 30.12 849 25.07 12.1 53.8 72 7.2 45
06:35 1020 30.12 849 25.07 12.2 53.9 71 7.1 44.8
06:40 1020 30.12 849 25.07 12.2 53.9 71 7.1 44.8
06:45 1020 30.12 849 25.07 11.9 53.4 71 6.8 44.2
06:50 1020 30.12 849 25.07 12 53.5 69 6.5 43.7
06:55 1020 30.12 849 25.07 12.1 53.8 68 6.5 43.6
07:00 1020 30.12 849 25.07 12.4 54.2 66 6.3 43.3
07:05 1020 30.12 849 25.07 12.7 54.9 66 6.6 43.9
07:10 1020 30.12 849 25.07 12.6 54.8 68 7 44.5
07:15 1020 30.12 849 25.07 12.4 54.4 69 7 44.7
07:20 1020 30.12 849 25.07 12.5 54.4 69 7 44.6
07:25 1020 30.12 849 25.07 12.4 54.2 71 7.2 45
07:30 1020 30.12 849 25.07 12.2 53.9 71 7.1 44.8
07:35 1020 30.12 849 25.07 12.1 53.9 71 7.2 44.9
07:40 1020 30.12 849 25.07 12.2 54 71 7.2 45
07:45 1020 30.12 849 25.07 12.4 54.4 71 7.3 45.2
07:50 1020 30.12 849 25.07 12.8 55 69 7.3 45.1
07:55 1020 30.12 849 25.07 13 55.3 68 7.3 45.2
08:00 1020 30.12 849 25.07 13.2 55.7 67 7.3 45.2
08:05 1020 30.12 849 25.07 13.4 56.2 67 7.5 45.4
08:10 1020 30.12 849 25.07 13.7 56.6 66 7.5 45.4
08:15 1020 30.12 849 25.07 14.1 57.4 65 7.7 45.9
08:20 1020 30.12 849 25.07 14.3 57.7 66 8 46.4
08:25 1020 30.12 849 25.07 14.2 57.6 67 8.2 46.8
08:30 1020 30.12 850 25.1 14.3 57.8 66 8 46.5
08:35 1020 30.12 850 25.1 14.5 58.2 65 8 46.5
08:40 1020 30.12 850 25.1 14.8 58.6 64 8.1 46.7
08:45 1020 30.12 850 25.1 14.8 58.6 64 8.2 46.7
08:50 1020 30.12 850 25.1 15.2 59.3 62 8 46.5
08:55 1020 30.12 850 25.1 15.7 60.3 61 8.3 46.9
09:00 1020 30.12 850 25.1 16.2 61.1 59 8.3 46.9
09:05 1020 30.12 850 25.1 16.3 61.4 60 8.6 47.5
09:10 1021 30.15 850 25.1 16.5 61.8 57 8 46.4
09:15 1021 30.15 850 25.1 16.9 62.5 56 8.3 46.9
09:20 1021 30.15 850 25.1 17.1 62.8 57 8.6 47.4
09:25 1021 30.15 850 25.1 17.5 63.4 54 8.2 46.7
09:30 1020 30.12 850 25.1 18 64.4 51 8 46.3
09:35 1020 30.12 850 25.1 18.5 65.2 49 7.8 46.1
09:40 1020 30.12 850 25.1 18.6 65.4 49 7.6 45.8
09:45 1020 30.12 850 25.1 18.8 65.8 49 7.9 46.2
09:50 1021 30.15 850 25.1 18.5 65.3 49 7.7 45.9
09:55 1020 30.12 850 25.1 19 66.2 51 8.7 47.6
10:00 1021 30.15 850 25.1 19 66.2 49 8.2 46.7
10:05 1021 30.15 850 25.1 19.1 66.4 49 8.4 47.1
10:10 1021 30.15 850 25.1 19.2 66.6 47 7.7 45.9
10:15 1021 30.15 850 25.1 19.2 66.5 47 7.9 46.2
10:20 1021 30.15 850 25.1 19.6 67.3 47 8.1 46.7
10:25 1021 30.15 850 25.1 19.2 66.6 46 7.6 45.7
10:30 1021 30.15 850 25.1 19.4 67 47 8 46.3
10:35 1021 30.15 850 25.1 19.4 67 47 8 46.5
10:40 1020 30.12 850 25.1 19.2 66.6 47 7.7 45.9
10:45 1020 30.12 850 25.1 19.9 67.9 44 7.5 45.6
10:50 1020 30.12 850 25.1 20.8 69.5 42 7.6 45.7
10:55 1020 30.12 850 25.1 21 69.8 42 7.8 46
11:00 1020 30.12 850 25.1 21 69.8 42 7.8 46.1
11:05 1020 30.12 850 25.1 20.5 68.9 45 8.4 47.1
11:10 1020 30.12 850 25.1 20.9 69.6 41 7.3 45.1
11:15 1020 30.12 850 25.1 21.8 71.2 39 7.4 45.4
11:20 1020 30.12 850 25.1 22.2 72 38 7.3 45.2
11:25 1020 30.12 849 25.07 22.3 72.1 39 7.9 46.3
11:30 1020 30.12 849 25.07 21.7 71 40 7.8 46
11:35 1020 30.12 849 25.07 21.3 70.4 41 7.9 46.2
11:40 1020 30.12 849 25.07 21.7 71.1 38 7 44.5
11:45 1020 30.12 849 25.07 21.7 71 40 7.8 46
11:50 1020 30.12 849 25.07 21.7 71.1 40 7.8 46.1
11:55 1020 30.12 849 25.07 22.2 72 38 7.4 45.3
12:00 1020 30.12 849 25.07 22.4 72.3 38 7.7 45.9
12:05 1020 30.12 849 25.07 22.7 72.9 37 7.6 45.7
12:10 1020 30.12 849 25.07 23.7 74.6 35 7.4 45.3
12:15 1020 30.12 849 25.07 23.6 74.5 36 7.8 46.1
12:20 1020 30.12 849 25.07 22.8 73.1 37 7.4 45.3
12:25 1020 30.12 849 25.07 23.4 74 35 7.4 45.3
12:30 1020 30.12 849 25.07 23.8 74.9 34 7.1 44.8
12:35 1020 30.12 849 25.07 24.3 75.8 34 7.9 46.1
12:40 1020 30.12 849 25.07 24 75.2 35 7.9 46.1
12:45 1020 30.12 849 25.07 23.9 74.9 34 7.1 44.8
12:50 1020 30.12 849 25.07 24 75.1 34 7.2 45
12:55 1020 30.12 849 25.07 23.6 74.5 33 6.7 44
13:00 1020 30.12 849 25.07 24.8 76.7 31 6.6 44
13:05 1020 30.12 849 25.07 24.9 76.7 31 7 44.6
13:10 1020 30.12 849 25.07 24.6 76.2 31 6.6 43.8
13:15 1019 30.09 849 25.07 24.4 75.9 30 6.1 43.1
13:20 1019 30.09 849 25.07 25.3 77.6 29 6.3 43.4
13:25 1019 30.09 849 25.07 26.6 79.8 27 6.2 43.2
13:30 1019 30.09 849 25.07 26.2 79.1 27 6.2 43.2
13:35 1019 30.09 848 25.04 26 78.8 26 5.1 41.1
13:40 1019 30.09 848 25.04 25.3 77.5 27 5.2 41.4
13:45 1019 30.09 848 25.04 26.1 78.9 27 5.7 42.3
13:50 1019 30.09 848 25.04 26.3 79.4 27 6.2 43.1
13:55 1019 30.09 848 25.04 26.7 80.1 25 5.5 41.9
14:00 1019 30.09 848 25.04 26.8 80.3 26 5.9 42.6
14:05 1019 30.09 848 25.04 26.7 80.1 26 5.7 42.3
14:10 1019 30.09 848 25.04 26.8 80.2 25 5.1 41.2
14:15 1019 30.09 848 25.04 27.9 82.2 23 5 41
14:20 1019 30.09 848 25.04 28 82.3 23 5 40.9
14:25 1019 30.09 848 25.04 27.8 82 23 5.3 41.6
14:30 1018 30.06 848 25.04 27.8 82.1 22 4.2 39.5
14:35 1018 30.06 848 25.04 28.1 82.5 21 4.3 39.8
14:40 1018 30.06 848 25.04 28.3 82.9 21 4.1 39.4
14:45 1018 30.06 848 25.04 27.5 81.5 20 2.8 37.1
14:50 1018 30.06 847 25.01 27.4 81.3 22 3.9 39.1
14:55 1018 30.06 847 25.01 27.8 82 21 3.9 38.9
15:00 1018 30.06 847 25.01 28 82.5 21 4.3 39.7
15:05 1018 30.06 847 25.01 28.5 83.3 19 3.1 37.5
15:10 1018 30.06 847 25.01 27.5 81.6 21 3.6 38.4
15:15 1018 30.06 847 25.01 27.1 80.8 22 3.6 38.6
15:20 1018 30.06 847 25.01 28 82.4 21 3.6 38.5
15:25 1018 30.06 847 25.01 27.2 80.9 22 3.9 39
15:30 1018 30.06 847 25.01 27.7 81.8 21 3.5 38.3
15:35 1018 30.06 847 25.01 27.6 81.7 20 3 37.5
15:40 1018 30.06 847 25.01 28.5 83.3 19 3.1 37.6
15:45 1018 30.06 847 25.01 28.7 83.6 20 3.6 38.5
15:50 1018 30.06 847 25.01 27.8 82.1 20 3 37.4
15:55 1018 30.06 848 25.04 27.8 82.1 19 2.6 36.6
16:00 1018 30.06 847 25.01 28.6 83.6 19 3.1 37.5
16:05 1018 30.06 848 25.04 28.7 83.6 19 3.1 37.6
16:10 1018 30.06 848 25.04 28.9 84 18 2.3 36.2
16:15 1018 30.06 847 25.01 27.8 82.1 21 3.6 38.5
16:20 1018 30.06 847 25.01 28.1 82.5 18 1.9 35.5
16:25 1018 30.06 847 25.01 28.9 84 18 2.5 36.6
16:30 1018 30.06 847 25.01 28.6 83.4 19 3.1 37.6
16:35 1018 30.06 847 25.01 27.8 82 19 2.6 36.7
16:40 1018 30.06 847 25.01 27.6 81.6 20 2.9 37.2
16:45 1018 30.06 847 25.01 27.7 81.8 19 2.1 35.7
16:50 1018 30.06 847 25.01 27.6 81.6 19 2.5 36.4
16:55 1018 30.06 847 25.01 27.6 81.6 19 2.4 36.4
17:00 1018 30.06 847 25.01 27.5 81.5 21 3.2 37.8
17:05 1018 30.06 847 25.01 27.5 81.5 20 2.8 37.1
17:10 1018 30.06 848 25.04 27.5 81.4 22 3.9 39
17:15 1018 30.06 847 25.01 26.8 80.2 23 4.1 39.4
17:20 1018 30.06 847 25.01 26.1 78.9 23 3.4 38.2
17:25 1018 30.06 848 25.04 26.1 79 24 4.2 39.5
17:30 1019 30.09 848 25.04 26.2 79.1 25 5 41
17:35 1019 30.09 848 25.04 26 78.8 25 4.7 40.4
17:40 1019 30.09 848 25.04 24.4 75.9 34 7.9 46.3
17:45 1019 30.09 848 25.04 24 75.1 32 6.6 43.8
17:50 1019 30.09 848 25.04 24.1 75.4 32 6.8 44.3
17:55 1019 30.09 848 25.04 23.9 75 38 8.9 48.1
18:00 1019 30.09 848 25.04 23.5 74.2 37 8.1 46.5
18:05 1019 30.09 848 25.04 22.8 73.1 40 8.6 47.4
18:10 1019 30.09 848 25.04 22.3 72.2 37 7.1 44.8
18:15 1019 30.09 848 25.04 22.4 72.2 38 7.4 45.3
18:20 1019 30.09 848 25.04 21.8 71.3 42 8.5 47.3
18:25 1019 30.09 848 25.04 21.4 70.5 45 9.3 48.7
18:30 1019 30.09 848 25.04 21 69.8 46 9.2 48.5
18:35 1019 30.09 848 25.04 20.7 69.2 46 8.7 47.7
18:40 1019 30.09 848 25.04 20.6 69.1 46 8.8 47.9
18:45 1019 30.09 848 25.04 20.7 69.2 46 8.9 48
18:50 1019 30.09 848 25.04 20.6 69.1 45 8.4 47.1
18:55 1019 30.09 848 25.04 20.5 68.9 44 7.9 46.2
19:00 1019 30.09 848 25.04 20.6 69 44 8 46.4
19:05 1019 30.09 848 25.04 20.6 69.1 43 7.8 46
19:10 1019 30.09 848 25.04 20.7 69.2 43 7.7 45.8
19:15 1018 30.06 848 25.04 20.9 69.5 42 7.7 45.8
19:20 1018 30.06 848 25.04 21 69.7 42 7.7 45.8
19:25 1019 30.09 848 25.04 21 69.8 41 7.5 45.6
19:30 1019 30.09 848 25.04 20.9 69.7 42 7.8 46
19:35 1019 30.09 848 25.04 20.8 69.4 41 7.3 45.2
19:40 1019 30.09 848 25.04 20.8 69.5 39 6.7 44.1
19:45 1019 30.09 848 25.04 21 69.8 39 6.8 44.2
19:50 1019 30.09 848 25.04 21 69.8 39 6.6 44
19:55 1019 30.09 848 25.04 20.9 69.7 39 6.5 43.8
20:00 1019 30.09 848 25.04 20.8 69.4 39 6.5 43.7
20:05 1019 30.09 848 25.04 20.7 69.3 39 6.4 43.5
20:10 1019 30.09 848 25.04 20.7 69.2 38 6.1 43
20:15 1019 30.09 848 25.04 20.8 69.4 38 6 42.8
20:20 1019 30.09 848 25.04 20.8 69.4 37 5.7 42.3
20:25 1019 30.09 848 25.04 20.7 69.3 37 5.7 42.2
20:30 1019 30.09 848 25.04 20.7 69.2 37 5.7 42.3
20:35 1019 30.09 848 25.04 20.7 69.2 36 5.4 41.7
20:40 1019 30.09 848 25.04 20.7 69.2 37 5.5 41.9
20:45 1019 30.09 848 25.04 20.5 68.9 38 5.8 42.4
20:50 1019 30.09 848 25.04 20.4 68.7 38 5.8 42.4
20:55 1019 30.09 848 25.04 20.2 68.4 39 6 42.7
21:00 1019 30.09 848 25.04 20 68 39 5.8 42.4
21:05 1019 30.09 848 25.04 20 67.9 39 5.6 42.1
21:10 1019 30.09 848 25.04 20 68 39 5.7 42.3
21:15 1019 30.09 848 25.04 19.9 67.8 39 5.8 42.4
21:20 1019 30.09 848 25.04 20 67.9 39 5.6 42.1
21:25 1019 30.09 848 25.04 20 68 39 5.8 42.4
21:30 1019 30.09 849 25.07 20 67.9 39 5.8 42.4
21:35 1019 30.09 849 25.07 19.8 67.6 40 6 42.8
21:40 1019 30.09 849 25.07 19.7 67.4 40 6 42.8
21:45 1019 30.09 849 25.07 19.6 67.3 41 6.1 42.9
21:50 1019 30.09 849 25.07 19.6 67.2 41 6 42.8
21:55 1019 30.09 849 25.07 19.6 67.2 40 5.9 42.6
22:00 1020 30.12 849 25.07 19.6 67.2 41 6.1 42.9
22:05 1020 30.12 849 25.07 19.5 67 41 6 42.7
22:10 1020 30.12 849 25.07 19.4 67 40 5.7 42.2
22:15 1020 30.12 849 25.07 19.5 67.1 40 5.8 42.4
22:20 1020 30.12 849 25.07 19.6 67.3 40 5.7 42.2
22:25 1020 30.12 849 25.07 19.6 67.2 40 5.8 42.5
22:30 1020 30.12 849 25.07 19.5 67 41 6 42.8
22:35 1020 30.12 849 25.07 19.3 66.7 41 6 42.8
22:40 1020 30.12 849 25.07 19.2 66.5 42 6 42.8
22:45 1020 30.12 849 25.07 19.2 66.6 41 5.6 42.2
22:50 1020 30.12 849 25.07 19.4 66.9 41 6 42.9
22:55 1020 30.12 849 25.07 19.3 66.7 42 6.1 43
23:00 1020 30.12 849 25.07 19.1 66.3 43 6.2 43.2
23:05 1020 30.12 849 25.07 18.8 65.8 44 6.4 43.5
23:10 1020 30.12 849 25.07 18.7 65.7 43 6.1 43
23:15 1020 30.12 849 25.07 18.8 65.9 42 5.8 42.5
23:20 1020 30.12 849 25.07 19 66.2 41 5.7 42.3
23:25 1020 30.12 850 25.1 19 66.2 41 5.5 41.9
23:30 1020 30.12 850 25.1 19.1 66.3 41 5.7 42.3
23:35 1020 30.12 850 25.1 19 66.2 42 5.9 42.5
23:40 1020 30.12 850 25.1 19 66.2 41 5.7 42.2
23:45 1020 30.12 850 25.1 19.1 66.3 41 5.7 42.3
23:50 1020 30.12 850 25.1 18.8 65.8 44 6.5 43.7
23:55 1020 30.12 850 25.1 18.4 65.2 45 6.4 43.6
24:00 1020 30.12 850 25.1 18.2 64.8 46 6.6 43.9